Regional Weather Roundup
Issued by NWS

Home | Current Version | Previous Version | Graphics & Text | Print | Product List | Glossary On
Versions: 1 2 3 4 5 6 7 8 9 10 11 12 13 14 15 16 17 18 19 20 21 22 23 24 25 26 27 28 29 30 31 32 33 34 35 36 37 38 39 40 41 42 43 44 45 46 47 48 49
000
ASUS45 KCYS 122310
RWRWY

WYOMING REGIONAL WEATHER ROUNDUP
NATIONAL WEATHER SERVICE CHEYENNE WY
400 PM MST FRI FEB 12 2016

NOTE:  "FAIR" INDICATES FEW OR NO CLOUDS BELOW 12,000 FEET
WITH NO SIGNIFICANT WEATHER AND/OR OBSTRUCTIONS TO VISIBILITY.

WYZ001-130000-
YELLOWSTONE NATIONAL PARK

CITY           SKY/WX    TMP DP  RH WIND       PRES   REMARKS
LK YELLOWSTONE   N/A     42  14  32 VRB5      30.28S
W YELLOWSTONE  NOT AVBL

$$
WYZ002>013-054>058-071-098>099-130000-
NORTHERN WYOMING

CITY           SKY/WX    TMP DP  RH WIND       PRES   REMARKS
JACKSON        SUNNY     37  28  70 CALM      30.25F
CODY           FAIR      55  25  30 SE8       30.12S
GREYBULL       FAIR      55  27  34 S6        30.12F
WORLAND        FAIR      52  27  38 NE3       30.12F
SHERIDAN       PTSUNNY   48  30  49 SW3       30.12F
BUFFALO        FAIR      47  30  51 SE10      30.17S
GILLETTE       CLOUDY    42  30  62 E10       30.20S
HULETT         CLOUDY    34  28  80 CALM      30.25S
NEWCASTLE      CLOUDY    32  28  86 SE10      30.28R WCI  24

$$
WYZ014>020-022>026-101>103-130000-
CENTRAL WYOMING

CITY           SKY/WX    TMP DP  RH WIND       PRES   REMARKS
BIG PINEY      FAIR      45  26  47 VRB3      30.29F
PINEDALE         N/A     46  27  46 CALM      30.29S
DUBOIS         FAIR      52  14  22 W24G37    30.19R
LANDER         FAIR      43  28  55 E3        30.14F
RIVERTON       FAIR      45  28  51 NE5       30.17S
CASPER         FAIR      44  27  51 SW12      30.17F
DOUGLAS        FAIR      47  31  53 SE9       30.21S

$$
WYZ021-027>030-104>119-130000-
SOUTHERN WYOMING

CITY           SKY/WX    TMP DP  RH WIND       PRES   REMARKS
EVANSTON       FAIR      45  18  34 S6        30.31F
KEMMERER       FAIR      45  16  31 CALM      30.31S
FORT BRIDGER   CLEAR     46  18  31 W14       30.33S
ROCK SPRINGS   FAIR      46  20  35 SW14      30.29S
DIXON          FAIR      41  26  55 CALM      30.35S
RAWLINS        FAIR      41  23  48 SW8       30.26S
SARATOGA       MOCLDY    46  25  42 NW5       30.30R
LARAMIE        FAIR      43  27  53 NE7       30.24S
CHEYENNE       FAIR      49  30  48 S15       30.23R
TORRINGTON     FAIR      39  31  72 E15       30.25R WCI  31
PINE BLUFFS    FAIR      45  32  61 SE14      30.25R

$$



USA.gov is the U.S. government's official web portal to all federal, state and local government web resources and services.